Simultaneous Nadir Overpasses (SNOs) Predictions

Prediction of SNOs between NOAA-19 and METOP-C Satellite Orbit:

Table of predicted SNOs for the next 14.0 days since TLE Epoch: 7/26/2019
Index Date (NOAA-19) Time (NOAA-19) Lat,Lon (NOAA-19) SZA (NOAA-19 ) Date (METOP-C) Time (METOP-C) Lat,Lon (METOP-C) SZA (METOP-C ) Distance(km) Time Diff (sec)
1 08/03/2019 13:49:42 -79.40, 169.28 117.74 08/03/2019 13:50:51 -79.39, 169.33 117.74 2.16 69
2 08/03/2019 14:40:43 79.37, -23.19 62.26 08/03/2019 14:41:32 79.39, -23.32 62.28 3.21 49
3 08/03/2019 15:31:42 -79.38, 144.00 117.73 08/03/2019 15:32:13 -79.37, 143.88 117.74 2.50 31
4 08/03/2019 16:22:44 79.38, -48.75 62.28 08/03/2019 16:22:54 79.37, -48.77 62.28 0.74 10
5 08/03/2019 17:13:43 -79.39, 118.44 117.71 08/03/2019 17:13:35 -79.36, 118.44 117.74 3.13 8
6 08/03/2019 18:04:45 79.38, -74.30 62.30 08/03/2019 18:04:16 79.36, -74.22 62.28 3.21 29
7 08/03/2019 18:55:43 -79.36, 93.15 117.70 08/03/2019 18:54:56 -79.38, 93.25 117.69 2.63 47
8 08/03/2019 19:46:45 79.36, -99.58 62.31 08/03/2019 19:45:38 79.35, -99.67 62.28 2.43 67




NCC Satellite Simultaneous Nadir Overpasses (SNOs) Prediction Service
